Weather History for Parkersburg, WV

Change the Weather History Date:

Sunday, July 14, 2013

  Actual Average Record
Temperature  
Mean Temperature 80 °F 75 °F  
Max Temperature 89 °F 85 °F 103 °F (1936)
Min Temperature 70 °F 64 °F 50 °F (2009)
Degree Days  
Heating Degree Days 0 0  
Month to date heating degree days 0 0  
Since 1 June heating degree days 6 19  
Since 1 July heating degree days 0 0  
Cooling Degree Days 15 10  
Month to date cooling degree days 144 132  
Year to date cooling degree days 456 407  
Since 1 June cooling degree days 330 323  
Growing Degree Days 30 (Base 50)    
Moisture  
Dew Point 68 °F    
Average Humidity 72    
Maximum Humidity 93    
Minimum Humidity 50    
Precipitation  
Precipitation 0.00 in 0.14 in 1.50 in (1985)
Month to date precipitation 5.44 1.85  
Year to date precipitation 24.17 22.82  
Sea Level Pressure  
Sea Level Pressure 30.25 in    
Wind  
Wind Speed 5 mph (SE)    
Max Wind Speed 16 mph    
Max Gust Speed 22 mph    
Visibility 10 miles    
Events      
T = Trace of Precipitation, MM = Missing Value Source: NWS Daily Summary

Daily Weather History Graph

Daily Weather History Graph

Search for Another Location

Airport:

Trip Planner

Search our weather history database for the weather conditions in past years. The results will help you decide how hot, cold, wet, or windy it might be!

Date:

Astronomy

Jul. 14, 2013 Rise Set
Actual Time 6:10 AM EDT 8:52 PM EDT
Civil Twilight 5:39 AM EDT 9:23 PM EDT
Nautical Twilight 5:00 AM EDT 10:02 PM EDT
Astronomical Twilight 4:15 AM EDT 10:46 PM EDT
Moon 12:23 PM EDT (7/14) No Moon Set
Length of Visible Light 15h 44m
Length of Day
14h 41m
Waxing Crescent, 35% of the Moon is Illuminated
Jul 14
Waxing Crescent
Jul 15
First Quarter
Jul 22
Full
Jul 29
Last Quarter
Aug 6
New

Hourly Weather History & Observations

Time (EDT) Temp. Heat Index Dew Point Humidity Pressure Visibility Wind Dir Wind Speed Gust Speed Precip Events Conditions
12:53 AM 72.0 °F - 69.1 °F 91% 30.20 in 10.0 mi Calm Calm - N/A   Overcast
1:53 AM 73.0 °F - 68.0 °F 84% 30.20 in 10.0 mi East 3.5 mph - N/A   Scattered Clouds
2:53 AM 73.0 °F - 68.0 °F 84% 30.20 in 10.0 mi East 3.5 mph - N/A   Overcast
3:53 AM 73.0 °F - 68.0 °F 84% 30.20 in 10.0 mi ESE 4.6 mph - N/A   Overcast
4:53 AM 73.0 °F - 66.9 °F 81% 30.20 in 10.0 mi East 3.5 mph - N/A   Mostly Cloudy
5:53 AM 71.1 °F - 66.9 °F 87% 30.22 in 10.0 mi Calm Calm - N/A   Clear
6:53 AM 71.1 °F - 66.9 °F 87% 30.24 in 10.0 mi Calm Calm - N/A   Clear
7:53 AM 73.9 °F - 68.0 °F 82% 30.25 in 10.0 mi ESE 4.6 mph - N/A   Clear
8:53 AM 78.1 °F - 68.0 °F 71% 30.26 in 10.0 mi ESE 4.6 mph - N/A   Clear
9:53 AM 81.0 °F 82.7 °F 64.9 °F 58% 30.27 in 10.0 mi SE 9.2 mph - N/A   Partly Cloudy
10:53 AM 82.9 °F 85.0 °F 66.0 °F 56% 30.28 in 10.0 mi SSE 12.7 mph 19.6 mph N/A   Partly Cloudy
11:53 AM 84.9 °F 87.6 °F 66.9 °F 55% 30.27 in 10.0 mi SSE 10.4 mph - N/A   Clear
12:53 PM 86.0 °F 88.8 °F 66.9 °F 53% 30.27 in 10.0 mi South 11.5 mph - N/A   Clear
1:53 PM 86.0 °F 89.4 °F 68.0 °F 55% 30.26 in 10.0 mi SSE 6.9 mph - N/A   Mostly Cloudy
2:53 PM 87.1 °F 91.3 °F 69.1 °F 55% 30.25 in 10.0 mi South 8.1 mph - N/A   Overcast
3:53 PM 88.0 °F 92.1 °F 69.1 °F 53% 30.25 in 10.0 mi SSE 4.6 mph - N/A   Overcast
4:53 PM 87.1 °F 92.0 °F 70.0 °F 57% 30.24 in 10.0 mi South 8.1 mph - N/A   Mostly Cloudy
5:53 PM 89.1 °F 92.9 °F 68.0 °F 50% 30.24 in 10.0 mi South 8.1 mph - N/A   Mostly Cloudy
6:53 PM 87.1 °F 91.3 °F 69.1 °F 55% 30.24 in 10.0 mi SSE 4.6 mph - N/A   Mostly Cloudy
7:53 PM 86.0 °F 90.7 °F 70.0 °F 59% 30.25 in 10.0 mi Calm Calm - N/A   Clear
8:53 PM 82.9 °F 85.8 °F 68.0 °F 60% 30.25 in 10.0 mi Calm Calm - N/A   Scattered Clouds
9:53 PM 80.1 °F 83.6 °F 71.1 °F 74% 30.27 in 10.0 mi Calm Calm - N/A   Overcast
10:53 PM 79.0 °F - 71.1 °F 77% 30.28 in 10.0 mi Calm Calm - N/A   Partly Cloudy
11:53 PM 73.9 °F - 71.1 °F 91% 30.29 in 10.0 mi Calm Calm - N/A   Partly Cloudy